Regional Weather Roundup
Issued by NWS

Home | Current Version | Previous Version | Text Only | Print | Product List | Glossary Off
Versions: 1 2 3 4 5 6 7 8 9 10 11 12 13 14 15 16 17 18 19 20 21 22 23 24 25 26 27 28 29 30 31 32 33 34 35 36 37 38 39 40 41 42 43 44 45 46 47 48 49 50

000
ASUS43 KIND 012209
RWRIN

WEATHER ROUNDUP FOR INDIANA
NATIONAL WEATHER SERVICE INDIANAPOLIS IN
500 PM EST SUN MAR 01 2015

NOTE: "FAIR" INDICATES FEW OR NO CLOUDS BELOW 12,000 FEET WITH NO
SIGNIFICANT WEATHER AND/OR OBSTRUCTIONS TO VISIBILITY.

* - STATION DOES NOT REPORT WEATHER SUCH AS PRECIPITATION OR FOG.

+ - STATION NOT QUALITY CONTROLLED BY THE NATIONAL WEATHER SERVICE.
    USE DATA WITH CAUTION...ESPECIALLY DEWPOINT AND RELATIVE
    HUMIDITY OBSERVATIONS.

INZ001>003-010>013-019-020-012300-
NORTHWEST INDIANA

CITY           SKY/WX    TMP DP  RH WIND       PRES   REMARKS
GARY /AIRPORT/ CLOUDY    28  16  59 SW9       30.28F WCI  20
KNOX *+          N/A     23  10  58 W5        30.27F WCI  17
LA PORTE +     MOSUNNY   27  20  76 W8        30.28S WCI  18
MICHIGAN CITY+ CLOUDY    27  18  69 CALM      30.27F
MONTICELLO +   PTSUNNY   24  20  85 W5        30.29S WCI  18
RENSSELAER +   MOSUNNY   27  23  86 W6        30.29F WCI  20
VALPARAISO     CLOUDY    24  18  77 SW9       30.27F WCI  14

$$

LMZ046-743>745-012300-
SOUTHERN LAKE MICHIGAN

STATION/POSITION TIME  TEMP WIND        PRES
                       AIR  DIR/SP/G
                 (UTC) (F)  (DEG/KT/KT) (MB)
MICHIGAN CITY    2200   23  230/  5/  6   N/A

$$

INZ004-005-014>016-021>024-012300-
NORTH CENTRAL INDIANA

CITY           SKY/WX    TMP DP  RH WIND       PRES   REMARKS
ELKHART        PTSUNNY   25  16  68 W7        30.26  WCI  17
GOSHEN         PTSUNNY   23  15  71 SW7       30.25F WCI  15
LOGANSPORT +   CLOUDY    27  21  80 W7        30.30R WCI  19
PERU/GRISSOM   CLOUDY    26  21  83 W6        30.27S WCI  19
ROCHESTER +    MOSUNNY   28  23  80 W5        30.28S WCI  23
SOUTH BEND     MOSUNNY   25  17  72 W7        30.26F WCI  17
WARSAW +       PTSUNNY   23  19  86 W6        30.26S WCI  16

$$

INZ006>009-017-018-025>027-012300-
NORTHEAST INDIANA

CITY           SKY/WX    TMP DP  RH WIND       PRES   REMARKS
ANGOLA *+      MOSUNNY   23  18  80 SW8       30.23S WCI  14
FORT WAYNE     CLOUDY    26  20  77 W7        30.27S WCI  18
HUNTINGTON +   CLOUDY    26  19  72 W5        30.27S WCI  21

$$

INZ028-029-035-036-043>045-051>053-012300-
WEST CENTRAL INDIANA

CITY           SKY/WX    TMP DP  RH WIND       PRES   REMARKS
CRAWFORDSVL +  CLOUDY    26  19  76 W6        30.30R WCI  19
GREENCASTLE +  CLOUDY    30  25  80 CALM      30.29S
LAFAYETTE      CLOUDY    25  21  85 NW8       30.31S WCI  16
TERRE HAUTE    CLOUDY    30  26  85 NW7       30.31S WCI  23

$$

INZ030>032-037>040-046>048-054>057-064-065-012300-
CENTRAL INDIANA

CITY           SKY/WX    TMP DP  RH WIND       PRES   REMARKS
CP ATTERBURY + CLOUDY    32  32 100 CALM      30.29F FOG
COLUMBUS       DRZL/FOG  30  28  93 CALM      30.29S VSB 1
FRANKFORT +    PTSUNNY   28  24  86 W6        30.30R WCI  22
GREENWOOD *+   CLOUDY    30  25  80 W3        30.28R
INDIANAPOLIS   CLOUDY    30  25  81 W5        30.28R WCI  25
-EAGLE CREEK   CLOUDY    29  25  85 W3        30.28R
KOKOMO *+      SUNNY     27  21  80 W8        30.29R WCI  18
MARION +       CLOUDY    26  22  86 W6        30.28S WCI  19
MT COMFORT *+  CLOUDY    30  23  74 CALM      30.28S
SHELBYVILLE    CLOUDY    33  28  81 W8        30.27S WCI  26
ZIONSVILLE +   CLOUDY    28  23  81 NW3       30.28S

$$

INZ033-034-041-042-049-050-058-059-012300-
EAST CENTRAL INDIANA

CITY           SKY/WX    TMP DP  RH WIND       PRES   REMARKS
MUNCIE         CLOUDY    27  23  85 NW6       30.26S WCI  20

$$

INZ060-061-067>069-081>083-085>088-012300-
SOUTHWEST INDIANA

CITY           SKY/WX    TMP DP  RH WIND       PRES   REMARKS
EVANSVILLE     CLOUDY    35  30  82 SW3       30.32F
HUNTINGBURG *+ CLOUDY    34  28  80 W5        30.32F WCI  30
WASHINGTON +   RAIN      32  29  88 N3        30.29F

$$

INZ062-063-066-070>080-084-089>092-012300-
SOUTH CENTRAL AND SOUTHEAST INDIANA

CITY           SKY/WX    TMP DP  RH WIND       PRES   REMARKS
BLOOMINGTON    CLOUDY    32  30  92 W6        30.28F FOG     WCI  26
NORTH VERNON + CLOUDY    32  32 100 W5        30.29S FOG     WCI  27
SEYMOUR +      FOG       36  34  93 CALM      30.30R VSB 3/4

$$




USA.gov is the U.S. government's official web portal to all federal, state and local government web resources and services.